Temperature
21 20 19 20 25 30 32 32 32 32 32 31 30 31 31 31 31 29 24 23 22 22 21 22 22 21 21 21 20 20 20 20 20 20 20 20 20 20 20 20 19 19 19 19 19 19 19 19 19
20 19 20 24 29 32 32 32 32 32 31 30 30 30 31 30 27 25 23 22 22 21 21 22 22 21 21 21 21 20 20 20 20 20 20 20 20 20 20 20 20 19 19 19 19 19 19 19 19
20 20 24 29 32 32 32 32 32 32 31 31 31 30 30 29 26 24 23 22 22 21 21 22 22 21 21 21 21 21 21 20 20 20 20 20 20 20 20 20 20 20 20 20 20 20 20 20 19
20 22 26 30 32 32 32 33 32 32 31 31 31 31 29 25 25 24 23 22 22 21 21 22 22 22 21 21 21 21 21 21 21 21 21 20 20 20 20 20 20 20 20 20 20 20 20 20 19
22 27 31 32 33 33 33 32 32 33 32 31 31 31 29 24 24 24 23 22 22 21 20 21 22 22 21 21 21 21 21 21 21 21 21 20 20 20 20 20 20 20 19 19 19 19 19 19 19
26 30 31 32 32 33 33 32 32 33 32 31 31 31 28 24 24 24 23 22 22 21 21 20 22 21 21 21 21 21 21 21 21 21 21 20 20 20 20 20 20 19 19 19 19 19 19 19 19
28 31 32 32 32 32 33 32 32 32 32 31 31 31 29 25 24 23 23 22 22 22 21 20 20 21 21 21 21 21 21 21 21 20 20 20 20 20 20 20 19 19 19 19 19 19 19 19 19
28 31 31 32 32 32 32 32 32 32 32 30 30 31 30 25 24 23 22 22 22 21 21 19 19 19 20 20 21 21 20 20 20 20 20 20 20 20 20 19 19 19 19 19 19 19 18 18 18
27 30 31 32 32 32 32 32 32 31 31 29 29 29 28 25 24 23 22 21 21 21 20 20 20 19 19 19 19 20 20 20 20 20 20 20 19 19 19 19 19 19 19 19 19 18 18 18 18
28 30 31 32 32 32 32 31 31 32 32 30 28 26 25 24 23 23 22 21 21 20 20 20 19 19 19 19 19 19 19 19 20 19 19 19 18 18 18 18 19 19 19 19 18 18 18 18 17
30 30 31 31 31 31 31 31 30 31 31 29 28 26 24 24 23 23 22 22 21 20 20 20 19 19 19 19 19 19 19 19 19 18 18 18 18 18 18 18 18 18 18 18 17 18 17 17 17
30 30 30 30 30 30 30 30 30 28 27 26 26 25 24 24 24 23 22 21 21 20 20 20 19 19 19 19 19 19 18 18 18 18 18 18 18 18 18 18 18 17 18 18 17 18 17 17 17
29 30 29 29 29 29 29 29 28 26 24 24 24 24 24 24 23 23 22 21 21 20 20 19 19 19 19 19 18 18 18 18 18 18 18 18 18 18 18 18 18 18 18 18 18 18 17 17 17
30 29 29 29 29 28 29 28 27 24 23 22 22 22 23 22 22 22 21 20 20 20 20 19 19 18 18 18 18 18 18 18 18 18 18 18 18 18 18 17 18 18 18 17 18 17 17 17 17
28 29 30 30 29 29 29 27 24 23 22 22 21 20 19 19 19 19 19 19 20 19 19 19 18 18 18 18 18 17 17 18 17 17 18 18 18 18 18 18 18 18 18 17 17 17 17 17 17
29 30 30 29 29 28 29 27 23 22 22 21 20 19 18 18 18 18 18 18 18 18 18 18 18 17 17 18 18 17 17 17 17 17 17 17 17 17 17 17 17 17 17 17 17 17 17 17 17
30 30 30 29 28 29 29 25 22 22 22 21 20 19 18 17 17 17 17 17 18 17 17 18 17 17 17 17 17 17 17 17 17 17 17 17 17 17 16 17 17 17 17 17 17 17 17 17 17
29 30 29 29 28 28 27 24 22 21 21 20 19 19 18 17 16 16 16 17 17 17 17 17 17 17 17 17 17 17 16 17 16 16 16 16 16 16 16 16 16 17 17 17 17 17 17 17 17
29 29 29 28 27 27 25 24 22 21 21 20 20 19 18 17 16 16 16 17 17 17 17 17 17 17 17 17 16 16 16 16 16 15 15 15 16 16 16 16 16 16 16 17 16 16 16 16 16
29 29 28 27 26 26 25 24 23 22 20 20 19 19 18 18 17 16 16 16 16 16 17 17 17 17 17 17 17 16 16 16 16 15 15 15 15 15 15 16 16 16 16 16 16 16 16 16 16
29 29 29 28 26 26 26 24 23 22 21 20 19 19 18 18 18 17 16 16 16 16 16 16 17 17 17 17 16 16 16 16 15 15 15 15 15 15 15 15 16 16 16 16 16 16 16 16 16
28 29 29 28 27 27 27 26 24 23 23 22 21 20 19 18 18 17 17 16 16 16 16 16 17 16 16 16 15 15 15 15 15 15 15 15 15 15 15 15 15 15 15 15 15 16 16 16 16
28 28 28 28 28 27 27 27 25 24 24 23 21 20 19 18 18 17 17 16 16 16 16 16 16 16 16 16 15 15 15 15 15 14 14 14 14 14 14 14 15 15 15 15 15 15 15 16 16
28 28 28 28 28 26 26 26 24 25 23 23 22 20 19 18 18 17 17 16 16 16 16 15 15 15 15 15 15 15 14 14 14 14 14 14 14 14 14 14 14 14 14 14 14 15 15 15 15
28 28 27 26 26 26 26 26 23 24 23 23 22 21 20 19 18 18 17 17 17 16 16 15 15 15 14 14 14 14 14 13 13 13 14 13 13 13 13 13 13 13 13 13 13 13 14 14 14
28 28 26 25 26 26 26 25 24 23 22 21 21 21 20 19 19 18 18 17 17 16 16 15 15 14 14 14 14 13 13 13 13 13 13 13 13 13 13 12 12 12 12 12 12 12 13 13 13
28 28 28 27 26 26 26 25 23 23 23 22 22 21 20 20 19 19 18 17 17 16 15 15 14 14 13 13 13 13 13 13 13 12 12 12 12 12 12 12 12 11 11 11 11 11 12 12 12
27 27 27 26 25 25 25 25 24 23 23 23 22 21 20 20 19 19 18 17 16 16 15 14 14 13 13 13 13 13 13 12 12 12 12 12 12 11 11 11 11 11 11 11 10 11 11 11 11
27 27 26 26 25 24 24 24 23 23 22 22 22 21 20 19 19 18 17 16 16 15 15 14 13 13 12 12 12 12 12 12 12 12 11 11 11 11 11 11 11 10 10 10 10 10 10 10 10
26 26 26 25 24 24 25 24 23 23 23 22 21 20 19 18 18 17 16 16 15 14 14 13 13 12 12 12 11 11 11 11 11 11 11 11 11 11 11 11 10 10 10 10 10 10 10 10 10
Wind_Speed
19 16 9 5 5 5 4 6 5 5 4 3 1 2 4 5 5 4 4 13 18 20 22 23 20 18 17 16 16 15 15 15 16 15 15 14 13 13 12 11 10 9 8 7 7 7 8 8 8
15 12 7 5 6 3 5 6 6 6 3 1 0 2 4 3 4 4 7 15 19 20 21 21 21 19 18 17 16 16 15 15 15 15 14 13 13 12 12 11 10 9 8 8 7 7 7 7 8
12 8 5 5 4 6 6 6 6 4 1 1 1 2 3 4 3 4 10 18 19 18 19 21 22 19 18 17 16 15 15 15 14 14 13 13 12 12 11 10 9 9 8 8 7 7 7 7 7
7 6 5 7 5 4 6 6 4 3 1 1 2 1 3 5 3 7 15 18 19 18 18 21 21 19 18 17 16 16 15 14 14 13 13 12 12 11 10 10 9 8 8 8 8 7 7 7 7
6 5 7 8 4 3 4 6 4 4 3 1 1 1 4 5 8 13 17 18 19 18 17 21 21 20 18 18 17 16 15 14 14 13 12 11 11 11 10 9 9 8 8 8 8 8 8 8 8
5 5 9 8 4 3 3 5 4 4 2 1 1 1 5 8 11 14 16 17 17 17 16 20 20 19 18 17 16 16 15 14 13 12 11 11 10 10 9 9 9 9 8 8 8 8 8 9 9
8 8 11 9 7 4 4 6 5 4 3 1 0 1 6 10 12 15 15 15 15 16 15 17 19 18 17 16 16 15 14 14 13 12 11 11 10 10 10 9 9 9 9 9 9 9 10 10 10
7 7 12 10 7 4 4 6 5 5 2 2 1 1 5 13 14 15 14 14 14 14 14 14 16 16 16 16 16 14 14 13 12 12 11 11 11 11 11 12 12 12 11 11 11 11 12 12 12
5 9 13 10 7 4 6 7 5 3 0 2 2 5 7 16 17 16 14 13 13 13 12 13 14 14 14 14 15 15 14 14 13 13 13 12 13 14 13 15 13 13 13 13 13 14 14 14 15
8 13 13 6 6 7 7 7 7 4 1 2 3 5 10 16 17 17 16 16 16 15 14 12 12 12 12 11 11 12 13 13 13 12 13 13 12 11 11 9 11 13 14 15 16 16 16 16 15
10 13 9 7 7 7 7 5 5 6 3 8 7 1 10 13 15 15 15 15 15 15 14 13 12 11 11 8 9 9 9 9 12 12 12 11 11 10 11 10 11 14 15 15 15 16 15 15 13
10 10 9 9 6 7 7 5 4 7 9 10 6 1 8 11 12 13 13 13 13 14 14 13 12 11 10 9 7 7 7 7 8 9 12 11 9 9 9 9 10 10 10 10 11 10 12 13 13
12 10 8 8 7 6 4 2 2 8 10 9 6 4 5 6 8 8 9 10 11 12 13 12 11 10 9 7 5 6 6 6 8 8 10 12 10 10 10 8 9 11 10 10 10 10 11 11 12
6 7 8 8 6 4 3 2 2 7 8 8 9 8 6 5 4 5 6 7 8 10 11 10 10 9 7 6 6 6 7 7 9 9 10 12 12 10 10 10 9 10 11 11 9 11 10 10 10
7 8 7 3 4 6 7 5 7 7 6 8 10 10 10 10 8 6 4 3 4 6 7 7 8 8 7 7 7 7 7 8 8 9 11 12 13 11 10 10 9 9 10 10 9 10 9 10 10
8 10 7 4 2 4 8 3 8 6 6 9 9 10 11 11 11 9 7 5 3 3 4 3 3 3 4 4 4 5 7 7 8 10 11 12 12 12 9 9 9 8 8 8 8 8 9 9 9
8 6 5 6 5 2 2 6 8 6 8 9 10 10 10 11 11 10 9 7 6 4 4 3 2 1 2 3 4 5 6 7 8 9 9 10 10 10 8 8 7 7 7 8 9 8 8 8 9
2 3 3 4 6 6 8 9 7 8 9 9 9 10 10 11 11 10 9 8 7 5 4 3 1 0 2 3 4 5 6 6 6 6 7 8 7 8 6 6 7 7 7 7 8 8 8 8 7
1 2 2 5 4 5 8 9 8 7 8 9 9 9 9 9 9 8 8 7 7 6 4 3 2 1 2 2 4 5 5 5 5 4 5 5 5 5 5 6 6 7 7 8 8 8 9 8 7
3 3 3 6 5 3 7 8 7 7 8 7 7 7 8 8 8 7 7 6 5 5 4 3 2 2 2 2 3 4 5 4 4 4 4 5 4 4 5 6 6 6 6 8 9 9 9 8 7
4 3 0 3 5 6 7 7 7 7 7 6 6 6 6 6 6 6 5 5 4 4 2 2 2 2 3 3 3 4 4 4 3 4 3 4 4 4 4 6 6 6 8 9 10 10 11 9 8
3 1 2 4 7 4 6 3 8 7 6 5 4 4 4 4 3 4 3 3 3 2 1 1 2 3 3 4 4 4 4 5 4 3 2 2 3 3 3 4 5 7 7 8 10 10 9 10 9
3 2 3 5 6 4 4 3 7 6 4 4 3 2 2 2 1 1 1 1 1 2 3 3 4 5 5 5 5 6 6 5 4 3 2 2 2 3 2 2 3 5 6 7 8 8 9 9 11
1 3 4 7 7 4 1 3 5 4 3 3 2 2 2 2 2 2 3 4 4 5 5 6 6 7 7 7 7 7 7 7 6 5 4 4 3 2 2 2 3 4 4 5 6 7 9 9 11
4 6 5 5 4 1 2 2 6 6 4 2 1 1 3 4 4 5 6 6 7 8 8 9 9 10 9 10 10 9 9 9 9 8 7 6 5 5 4 4 4 4 4 4 5 6 8 9 10
3 6 6 6 5 2 2 1 6 5 4 2 2 2 4 5 6 7 8 9 10 11 11 11 11 11 12 12 11 11 12 11 11 10 10 10 8 7 5 6 6 6 5 5 5 5 7 8 9
3 3 5 6 5 5 1 5 7 4 3 3 3 4 5 6 8 9 10 11 12 12 12 12 12 13 13 14 13 13 14 13 14 13 12 12 10 9 9 9 8 8 7 7 6 7 7 7 8
4 3 4 5 5 5 2 2 3 3 7 7 6 7 8 9 10 11 12 12 13 13 12 12 13 14 14 15 14 13 14 15 14 14 15 14 13 12 12 12 11 11 10 9 8 8 8 8 9
2 2 3 4 5 7 7 2 5 6 8 9 9 8 10 11 12 13 13 14 14 14 14 14 14 15 15 16 15 16 16 16 17 16 16 15 15 15 15 15 14 13 13 12 10 10 10 10 10
5 4 4 5 4 5 8 2 6 6 8 9 10 10 11 12 14 15 15 15 15 15 16 16 16 17 17 17 17 17 17 18 18 19 19 18 17 17 17 16 16 16 15 14 14 13 12 12 11
Wind_Direction
157 163 176 199 235 233 35 40 17 12 22 20 6 288 320 329 331 8 98 149 151 150 147 154 159 162 163 161 157 155 155 156 157 158 159 158 158 159 160 160 160 159 158 149 139 134 130 127 126
161 164 194 232 267 335 49 33 21 20 22 23 147 275 306 356 32 82 130 147 152 151 151 158 157 163 165 164 161 160 159 159 160 160 161 162 163 164 165 166 166 166 163 154 149 145 140 138 136
163 192 245 255 290 350 9 16 14 24 56 286 333 336 344 22 76 119 138 150 153 150 152 153 159 165 167 166 165 164 164 164 164 165 166 167 168 170 171 170 171 172 168 163 161 159 155 152 149
175 215 239 256 293 12 358 354 345 340 20 285 294 77 87 53 86 127 142 153 153 153 157 154 163 166 168 169 169 168 168 168 169 170 171 172 174 177 180 178 179 181 179 176 175 175 169 166 164
227 252 255 260 292 7 359 352 322 310 340 339 290 68 101 91 109 132 148 156 157 159 159 155 165 168 170 171 172 172 172 172 172 173 175 178 181 186 189 188 189 193 194 191 188 186 184 182 182
231 249 266 278 311 343 1 1 317 307 318 300 264 118 106 124 135 144 152 160 161 161 161 154 165 170 172 174 175 176 176 177 178 179 182 186 190 195 199 200 203 206 209 207 206 202 200 198 199
262 264 273 284 296 302 6 348 331 327 316 325 249 124 125 145 143 148 153 161 163 164 162 159 169 173 175 177 179 180 181 183 185 187 190 196 201 206 211 212 215 218 219 220 220 219 216 212 211
262 267 264 264 276 294 358 337 343 324 355 46 277 323 123 148 149 149 152 162 167 168 169 166 174 174 179 181 183 185 187 190 193 197 201 204 210 216 219 222 216 224 227 227 228 229 228 224 221
242 252 260 264 276 298 346 333 342 329 73 80 38 28 89 140 149 152 155 163 170 174 175 177 176 177 185 187 178 187 192 197 201 205 207 213 221 220 215 225 217 224 233 235 235 235 235 234 228
226 249 259 283 294 304 323 322 331 301 255 53 55 87 123 147 158 164 166 170 174 178 182 182 185 179 190 192 181 197 201 198 211 215 212 217 225 234 237 215 220 233 239 242 241 241 240 238 236
230 250 267 266 279 297 297 312 339 313 340 5 345 138 155 163 171 175 175 177 176 180 185 184 187 185 194 195 196 205 212 207 215 221 224 230 234 233 236 235 221 229 234 239 236 235 238 237 237
239 246 256 265 282 285 293 306 350 17 358 349 341 141 164 175 179 181 178 177 175 183 187 190 188 191 199 206 209 215 222 220 228 224 229 233 234 240 239 237 242 238 234 237 246 244 244 246 245
237 246 248 258 267 276 282 322 29 22 11 16 34 99 146 169 172 173 173 175 177 185 190 192 192 194 198 207 232 236 242 244 239 242 237 240 242 242 243 243 244 248 247 241 241 248 252 251 248
252 257 259 261 255 229 183 87 45 18 21 43 57 65 76 92 109 130 151 169 180 188 191 192 195 196 199 209 229 246 251 253 260 253 251 245 246 244 245 246 244 247 248 250 250 250 252 252 250
258 248 221 214 211 185 175 97 40 23 44 63 67 68 66 65 69 71 86 133 167 180 183 187 195 198 207 222 233 248 253 256 261 259 252 248 246 244 241 244 243 245 248 249 249 252 253 252 247
228 222 190 106 134 176 220 129 46 34 65 70 70 72 72 65 62 57 55 59 70 121 141 159 196 199 218 242 254 261 266 267 267 267 259 254 250 246 244 244 243 245 249 247 247 249 250 251 251
205 202 167 113 58 123 173 94 58 46 73 74 71 71 71 69 60 56 57 62 66 84 105 123 148 208 252 260 265 270 278 273 272 272 266 261 254 249 246 247 242 241 243 245 250 245 248 250 248
178 183 162 110 73 95 101 99 79 62 71 75 74 72 69 65 58 57 61 69 74 80 92 104 116 355 299 287 289 288 283 283 280 276 271 266 256 247 247 252 247 244 247 246 244 250 245 252 250
272 236 129 101 109 97 105 102 87 77 74 74 72 73 74 72 71 68 70 73 81 81 82 79 59 9 317 299 293 294 289 289 287 284 289 279 264 256 254 258 255 251 248 250 247 246 240 240 240
225 222 143 124 133 136 126 111 98 83 76 71 75 76 76 80 79 75 74 77 77 79 82 83 57 21 340 316 300 293 294 291 291 293 296 296 289 279 261 260 259 255 255 252 250 244 248 240 223
236 271 313 144 154 166 164 146 127 109 100 94 88 84 79 75 76 78 76 74 75 69 61 45 10 343 333 319 298 294 279 275 281 284 285 295 300 298 290 273 269 265 252 247 244 239 238 239 226
258 4 283 198 211 192 229 202 135 135 124 113 102 91 86 83 76 76 77 73 65 49 15 331 317 308 306 300 302 302 299 299 293 290 296 314 311 300 294 290 279 273 265 258 251 239 238 238 236
348 7 258 239 252 238 220 256 130 147 136 130 132 122 112 113 97 62 25 351 326 309 301 293 289 288 286 287 290 291 297 302 298 292 277 281 294 298 296 292 285 280 278 273 266 260 245 239 241
201 219 217 232 243 233 49 284 119 108 83 105 146 179 207 217 241 270 283 281 284 288 286 283 281 281 282 279 281 280 286 287 288 279 275 265 264 265 275 282 283 282 284 280 274 266 253 251 250
252 273 265 246 239 124 105 271 87 83 70 50 5 237 234 242 258 271 283 289 292 293 292 291 288 285 282 277 273 270 272 272 266 267 268 268 274 263 235 246 244 254 261 273 279 272 265 257 252
320 308 314 314 322 348 165 113 98 86 72 33 322 286 265 268 273 280 286 290 294 295 296 294 292 290 288 283 276 271 268 268 270 264 272 272 272 270 255 240 238 241 241 247 248 264 266 263 257
306 336 334 296 292 287 144 124 122 110 54 358 316 297 288 289 290 293 296 297 300 300 301 302 300 296 293 291 286 276 271 269 272 271 261 265 264 264 248 241 241 242 240 240 240 246 252 262 261
21 348 305 314 320 307 275 209 130 43 1 347 331 317 307 301 301 305 306 306 308 306 304 303 300 298 296 293 289 285 281 275 269 266 267 266 266 262 257 249 245 242 240 237 238 246 242 243 250
27 23 341 318 327 315 316 21 79 18 348 333 328 322 316 313 312 313 313 313 310 307 306 305 303 299 296 293 291 289 284 281 277 271 266 261 258 258 252 248 246 243 241 237 235 243 245 243 245
45 19 346 323 329 307 305 15 93 2 333 327 322 321 319 317 315 315 316 316 312 311 311 309 307 304 301 299 295 290 287 284 280 275 272 267 262 257 253 250 247 244 242 238 235 238 241 241 243
Height
1518 1520 1522 1525 1519 1504 1496 1493 1491 1491 1490 1493 1494 1494 1493 1493 1496 1503 1506 1505 1508 1511 1512 1515 1518 1521 1524 1527 1530 1533 1536 1538 1540 1542 1543 1545 1546 1547 1548 1549 1550 1552 1553 1554 1555 1555 1556 1557 1558
1520 1521 1525 1522 1507 1499 1498 1492 1492 1492 1494 1495 1495 1496 1495 1495 1501 1503 1504 1506 1509 1512 1514 1516 1519 1522 1525 1528 1531 1534 1536 1538 1540 1542 1544 1545 1547 1548 1549 1550 1551 1552 1553 1554 1555 1556 1557 1558 1559
1521 1523 1523 1511 1499 1500 1499 1492 1492 1493 1495 1495 1495 1496 1497 1499 1503 1504 1504 1506 1510 1513 1516 1517 1520 1523 1526 1529 1532 1534 1537 1539 1541 1543 1544 1546 1547 1548 1549 1551 1552 1553 1554 1555 1556 1557 1558 1558 1559
1523 1524 1520 1507 1497 1493 1494 1492 1492 1492 1494 1495 1495 1496 1500 1503 1504 1504 1505 1508 1512 1514 1518 1519 1522 1524 1527 1530 1533 1535 1537 1539 1541 1543 1544 1546 1547 1549 1550 1551 1552 1553 1554 1555 1556 1557 1558 1559 1560
1523 1519 1507 1498 1493 1492 1492 1493 1493 1491 1492 1494 1495 1495 1500 1503 1503 1504 1506 1510 1513 1517 1520 1520 1522 1525 1528 1530 1533 1535 1537 1539 1541 1543 1544 1546 1547 1549 1550 1551 1552 1553 1554 1555 1556 1557 1557 1558 1559
1521 1512 1504 1499 1493 1492 1491 1493 1492 1491 1492 1494 1495 1495 1501 1504 1504 1507 1509 1512 1516 1518 1521 1521 1523 1525 1528 1531 1533 1535 1537 1539 1541 1543 1544 1545 1547 1548 1549 1550 1551 1552 1553 1554 1555 1556 1556 1557 1558
1517 1506 1501 1498 1496 1493 1493 1494 1492 1491 1492 1493 1495 1495 1500 1505 1506 1508 1511 1514 1518 1520 1523 1522 1524 1526 1528 1531 1533 1535 1537 1539 1541 1542 1544 1545 1546 1547 1548 1549 1550 1551 1552 1553 1553 1554 1555 1556 1556
1515 1506 1499 1496 1497 1494 1493 1493 1492 1492 1492 1495 1496 1495 1498 1504 1506 1509 1511 1515 1518 1521 1523 1524 1526 1527 1529 1531 1533 1535 1537 1539 1540 1541 1543 1544 1545 1546 1547 1547 1548 1549 1550 1551 1551 1552 1553 1554 1554
1514 1508 1500 1494 1494 1492 1493 1493 1493 1493 1494 1496 1497 1499 1501 1502 1505 1508 1511 1514 1517 1520 1523 1525 1527 1528 1530 1532 1533 1534 1536 1538 1539 1540 1541 1542 1544 1545 1546 1546 1546 1547 1548 1548 1549 1550 1551 1551 1552
1509 1503 1495 1493 1495 1494 1495 1495 1494 1492 1492 1495 1498 1500 1501 1502 1504 1506 1509 1512 1514 1517 1521 1523 1526 1527 1530 1532 1533 1534 1536 1537 1537 1539 1540 1541 1542 1543 1544 1544 1544 1545 1545 1546 1546 1547 1548 1548 1550
1502 1498 1494 1496 1497 1497 1495 1495 1495 1492 1491 1497 1499 1500 1501 1502 1504 1506 1508 1511 1513 1516 1519 1522 1524 1525 1528 1530 1532 1533 1535 1535 1536 1537 1537 1538 1539 1540 1540 1541 1542 1542 1542 1543 1544 1544 1545 1546 1547
1500 1498 1499 1497 1497 1497 1496 1495 1496 1498 1501 1501 1500 1500 1501 1502 1504 1506 1508 1510 1512 1514 1517 1520 1521 1523 1525 1528 1530 1531 1532 1533 1534 1534 1534 1536 1536 1536 1537 1537 1539 1540 1540 1540 1541 1541 1542 1542 1543
1499 1496 1497 1497 1497 1496 1497 1497 1499 1502 1503 1502 1501 1501 1501 1503 1505 1507 1509 1511 1512 1514 1516 1518 1519 1521 1523 1525 1527 1529 1530 1530 1530 1530 1530 1531 1531 1532 1532 1533 1533 1535 1536 1536 1536 1537 1538 1538 1538
1495 1496 1495 1494 1494 1495 1496 1499 1501 1504 1505 1504 1503 1503 1503 1504 1506 1507 1509 1510 1512 1513 1515 1517 1517 1519 1521 1522 1524 1525 1526 1526 1527 1526 1526 1525 1526 1526 1526 1527 1528 1530 1531 1532 1532 1533 1533 1533 1534
1497 1494 1490 1491 1492 1493 1494 1499 1506 1507 1507 1506 1506 1506 1506 1507 1507 1508 1509 1510 1512 1512 1513 1514 1516 1517 1518 1519 1520 1521 1522 1521 1521 1521 1520 1520 1520 1520 1521 1521 1522 1524 1526 1527 1527 1528 1528 1529 1530
1491 1488 1487 1489 1490 1492 1493 1501 1509 1508 1508 1508 1509 1509 1509 1509 1509 1509 1509 1509 1511 1512 1512 1513 1515 1516 1516 1517 1517 1517 1517 1516 1516 1515 1514 1514 1513 1514 1515 1515 1517 1518 1520 1522 1523 1524 1524 1525 1525
1485 1485 1486 1490 1491 1489 1489 1502 1511 1510 1510 1510 1511 1512 1512 1512 1511 1510 1510 1510 1511 1512 1512 1513 1514 1515 1515 1515 1514 1514 1513 1512 1511 1509 1508 1507 1507 1508 1509 1510 1511 1513 1515 1517 1519 1520 1520 1521 1521
1487 1484 1487 1490 1493 1492 1496 1506 1511 1512 1512 1513 1513 1514 1514 1514 1513 1513 1512 1512 1512 1512 1513 1513 1513 1513 1513 1513 1513 1511 1510 1509 1506 1504 1502 1500 1500 1502 1503 1504 1506 1508 1510 1512 1514 1515 1516 1517 1517
1486 1486 1489 1493 1495 1496 1502 1507 1511 1513 1513 1514 1515 1516 1516 1516 1516 1515 1514 1514 1514 1513 1513 1513 1513 1513 1512 1511 1511 1509 1508 1506 1504 1501 1497 1496 1495 1496 1498 1500 1502 1504 1505 1507 1509 1511 1512 1513 1514
1486 1488 1490 1494 1497 1497 1503 1508 1511 1514 1516 1517 1517 1518 1518 1518 1518 1517 1517 1516 1515 1514 1514 1513 1513 1513 1511 1510 1509 1507 1505 1503 1501 1499 1496 1495 1494 1493 1495 1496 1498 1499 1500 1502 1505 1507 1509 1510 1511
1486 1486 1488 1492 1496 1496 1499 1507 1509 1514 1516 1518 1518 1519 1519 1519 1519 1519 1518 1517 1516 1515 1515 1514 1513 1512 1511 1509 1508 1506 1504 1502 1500 1498 1495 1494 1492 1491 1492 1493 1494 1495 1497 1499 1501 1503 1504 1506 1508
1488 1484 1487 1491 1494 1493 1495 1504 1505 1508 1513 1516 1518 1519 1519 1520 1520 1520 1519 1518 1517 1516 1514 1513 1512 1510 1509 1508 1507 1505 1504 1501 1499 1496 1494 1492 1491 1490 1490 1490 1491 1492 1494 1495 1497 1498 1500 1502 1504
1487 1487 1486 1487 1488 1491 1492 1497 1505 1505 1509 1512 1516 1518 1519 1520 1520 1519 1518 1517 1516 1515 1514 1512 1511 1509 1507 1506 1504 1503 1502 1499 1497 1494 1492 1490 1489 1488 1488 1487 1487 1488 1489 1490 1492 1493 1495 1497 1499
1487 1487 1487 1485 1484 1500 1497 1499 1508 1504 1509 1511 1515 1517 1519 1519 1519 1518 1517 1516 1515 1514 1512 1511 1509 1507 1505 1503 1502 1500 1498 1496 1494 1492 1491 1489 1488 1486 1485 1484 1484 1484 1485 1486 1486 1487 1489 1491 1493
1486 1489 1498 1500 1499 1501 1495 1498 1511 1507 1510 1512 1514 1515 1517 1517 1517 1517 1516 1515 1513 1512 1510 1508 1506 1504 1502 1500 1498 1496 1495 1493 1491 1490 1489 1487 1486 1484 1483 1482 1481 1481 1481 1481 1481 1482 1483 1485 1487
1488 1489 1502 1512 1507 1497 1496 1501 1509 1509 1512 1514 1514 1514 1515 1515 1515 1514 1513 1512 1511 1509 1507 1505 1503 1500 1498 1496 1494 1492 1490 1489 1488 1486 1485 1484 1483 1481 1479 1478 1477 1477 1476 1476 1476 1476 1477 1479 1480
1488 1488 1487 1493 1495 1500 1497 1501 1508 1509 1510 1512 1512 1513 1513 1513 1513 1512 1511 1509 1508 1505 1503 1501 1498 1495 1493 1491 1489 1487 1485 1483 1482 1480 1479 1478 1477 1476 1475 1473 1473 1472 1472 1471 1471 1471 1471 1472 1474
1490 1490 1491 1495 1509 1509 1501 1501 1506 1507 1509 1509 1510 1510 1511 1510 1510 1509 1508 1506 1504 1502 1499 1496 1494 1491 1488 1486 1484 1481 1479 1477 1475 1474 1472 1471 1470 1470 1469 1469 1468 1467 1467 1467 1466 1466 1467 1467 1468
1493 1494 1495 1494 1500 1510 1510 1506 1503 1508 1509 1508 1508 1509 1509 1508 1507 1506 1504 1502 1500 1497 1495 1492 1489 1486 1483 1480 1477 1474 1472 1470 1468 1467 1465 1464 1463 1462 1462 1461 1461 1461 1461 1461 1461 1461 1462 1462 1463
1495 1498 1497 1504 1507 1505 1506 1506 1504 1506 1507 1508 1508 1508 1508 1507 1505 1503 1501 1498 1496 1493 1490 1487 1483 1480 1477 1474 1471 1468 1465 1462 1460 1458 1457 1456 1455 1454 1454 1454 1454 1454 1455 1455 1455 1456 1457 1457 1458